| time (UTC) | temp C | wind direction | speed KPH | gust KPH | rain 1hr cm | rain 24hr cm | rain mn cm | humidity % | barometer mb |
| 20260503000017 | 15 | 0.0 | 1.6 | 0.00 | 0.15 | 0.00 | 85 | 1014.9 | |
| 20260502235016 | 14 | 256 | 1.6 | 3.2 | 0.00 | 0.15 | 0.15 | 85 | 1014.9 |
| 20260502234016 | 14 | 256 | 1.6 | 3.2 | 0.08 | 0.15 | 0.15 | 87 | 1015.0 |
| 20260502233016 | 14 | 256 | 0.0 | 1.6 | 0.08 | 0.15 | 0.15 | 88 | 1015.1 |
| 20260502232036 | 14 | 256 | 0.0 | 1.6 | 0.08 | 0.15 | 0.15 | 87 | 1015.1 |
| 20260502231017 | 15 | 256 | 0.0 | 3.2 | 0.08 | 0.15 | 0.15 | 86 | 1015.0 |
| 20260502230036 | 15 | 248 | 1.6 | 4.8 | 0.08 | 0.15 | 0.15 | 85 | 1015.2 |
| 20260502225016 | 15 | 239 | 3.2 | 6.4 | 0.08 | 0.15 | 0.15 | 84 | 1015.5 |
| 20260502224016 | 15 | 276 | 1.6 | 4.8 | 0.00 | 0.08 | 0.08 | 82 | 1015.3 |
| 20260502223016 | 15 | 276 | 0.0 | 1.6 | 0.00 | 0.08 | 0.08 | 82 | 1015.0 |
| 20260502222036 | 15 | 276 | 1.6 | 3.2 | 0.00 | 0.08 | 0.08 | 83 | 1015.2 |
| 20260502221016 | 15 | 276 | 1.6 | 3.2 | 0.00 | 0.08 | 0.08 | 82 | 1015.4 |
| 20260502220016 | 15 | 276 | 1.6 | 3.2 | 0.00 | 0.08 | 0.08 | 80 | 1015.3 |
| 20260502215036 | 15 | 274 | 1.6 | 6.4 | 0.00 | 0.08 | 0.08 | 78 | 1015.5 |
| 20260502214036 | 15 | 242 | 3.2 | 3.2 | 0.00 | 0.08 | 0.08 | 76 | 1015.2 |
| 20260502213017 | 15 | 241 | 3.2 | 6.4 | 0.00 | 0.08 | 0.08 | 76 | 1015.1 |
| 20260502212016 | 16 | 235 | 3.2 | 6.4 | 0.00 | 0.08 | 0.08 | 76 | 1015.2 |
| 20260502211016 | 16 | 249 | 1.6 | 4.8 | 0.00 | 0.08 | 0.08 | 75 | 1015.1 |
| 20260502210016 | 16 | 244 | 3.2 | 6.4 | 0.00 | 0.08 | 0.08 | 74 | 1014.9 |
| 20260502205016 | 16 | 245 | 1.6 | 6.4 | 0.00 | 0.08 | 0.08 | 74 | 1014.9 |
| 20260502204016 | 16 | 243 | 3.2 | 6.4 | 0.00 | 0.08 | 0.08 | 73 | 1014.9 |
| 20260502203016 | 16 | 235 | 3.2 | 4.8 | 0.00 | 0.08 | 0.08 | 72 | 1014.7 |
| 20260502202037 | 16 | 245 | 1.6 | 4.8 | 0.00 | 0.08 | 0.08 | 72 | 1014.6 |
| 20260502201016 | 16 | 248 | 3.2 | 6.4 | 0.00 | 0.08 | 0.08 | 71 | 1014.6 |
| 20260502200016 | 16 | 256 | 1.6 | 4.8 | 0.00 | 0.08 | 0.08 | 70 | 1014.5 |
| 20260502195016 | 16 | 261 | 1.6 | 4.8 | 0.00 | 0.08 | 0.08 | 68 | 1014.4 |
| 20260502194017 | 16 | 252 | 3.2 | 6.4 | 0.00 | 0.08 | 0.08 | 67 | 1014.3 |
| 20260502193036 | 17 | 251 | 3.2 | 8.0 | 0.00 | 0.08 | 0.08 | 66 | 1014.2 |
| 20260502192017 | 17 | 260 | 3.2 | 8.0 | 0.00 | 0.08 | 0.08 | 64 | 1014.2 |
| 20260502191036 | 17 | 252 | 4.8 | 9.7 | 0.00 | 0.08 | 0.08 | 63 | 1014.2 |
| 20260502190037 | 17 | 274 | 3.2 | 8.0 | 0.00 | 0.08 | 0.08 | 62 | 1014.1 |
| 20260502185016 | 18 | 261 | 4.8 | 9.7 | 0.00 | 0.08 | 0.08 | 61 | 1014.3 |
| 20260502184037 | 18 | 252 | 4.8 | 12.9 | 0.00 | 0.08 | 0.08 | 61 | 1014.2 |
| 20260502183017 | 18 | 264 | 6.4 | 17.7 | 0.00 | 0.08 | 0.08 | 63 | 1014.1 |
| 20260502182036 | 18 | 264 | 4.8 | 12.9 | 0.00 | 0.08 | 0.08 | 64 | 1014.0 |
| 20260502181017 | 17 | 269 | 8.0 | 17.7 | 0.00 | 0.08 | 0.08 | 65 | 1014.0 |
| 20260502164016 | 19 | 284 | 8.0 | 24.1 | 0.00 | 0.08 | 0.08 | 60 | 1014.4 |
| 20260502163016 | 19 | 278 | 11.3 | 20.9 | 0.00 | 0.08 | 0.08 | 61 | 1014.3 |
| 20260502162016 | 19 | 285 | 9.7 | 24.1 | 0.00 | 0.08 | 0.08 | 62 | 1014.4 |
| 20260502161036 | 18 | 299 | 12.9 | 25.7 | 0.00 | 0.08 | 0.08 | 64 | 1014.6 |
| 20260502152017 | 22 | 252 | 8.0 | 22.5 | 0.00 | 0.08 | 0.08 | 55 | 1014.9 |
| 20260502151017 | 21 | 257 | 9.7 | 17.7 | 0.00 | 0.08 | 0.08 | 57 | 1014.9 |
| 20260502123037 | 20 | 240 | 4.8 | 14.5 | 0.00 | 0.08 | 0.08 | 64 | 1016.7 |
| 20260502122017 | 20 | 229 | 6.4 | 12.9 | 0.00 | 0.08 | 0.08 | 65 | 1017.0 |
| 20260502121017 | 20 | 154 | 4.8 | 16.1 | 0.00 | 0.08 | 0.08 | 65 | 1017.0 |
| 20260502115017 | 18 | 238 | 8.0 | 14.5 | 0.00 | 0.08 | 0.08 | 69 | 1017.1 |
| 20260502114017 | 18 | 130 | 4.8 | 12.9 | 0.00 | 0.08 | 0.08 | 71 | 1017.4 |
| 20260502113017 | 18 | 243 | 3.2 | 12.9 | 0.00 | 0.08 | 0.08 | 72 | 1017.6 |
| 20260502112037 | 18 | 249 | 6.4 | 16.1 | 0.00 | 0.08 | 0.08 | 72 | 1017.8 |
| 20260502111017 | 18 | 218 | 4.8 | 11.3 | 0.00 | 0.08 | 0.08 | 74 | 1017.8 |
| 20260502110017 | 17 | 233 | 4.8 | 12.9 | 0.00 | 0.08 | 0.08 | 75 | 1017.9 |
| 20260502105017 | 17 | 192 | 3.2 | 14.5 | 0.00 | 0.08 | 0.08 | 76 | 1018.1 |
| 20260502104017 | 17 | 238 | 6.4 | 11.3 | 0.00 | 0.08 | 0.08 | 76 | 1018.3 |
| 20260502103017 | 17 | 88 | 3.2 | 6.4 | 0.00 | 0.08 | 0.08 | 79 | 1018.4 |
| 20260502102017 | 17 | 140 | 3.2 | 9.7 | 0.00 | 0.08 | 0.08 | 80 | 1018.4 |
| 20260502101037 | 17 | 263 | 1.6 | 8.0 | 0.00 | 0.08 | 0.08 | 82 | 1018.5 |
| 20260502091017 | 16 | 117 | 3.2 | 8.0 | 0.00 | 0.08 | 0.08 | 87 | 1018.6 |
| 20260502071017 | 15 | 134 | 3.2 | 9.7 | 0.03 | 0.03 | 0.03 | 85 | 1018.8 |
| 20260502070017 | 15 | 130 | 3.2 | 9.7 | 0.03 | 0.03 | 0.03 | 85 | 1019.0 |
| 20260502065037 | 15 | 120 | 4.8 | 9.7 | 0.03 | 0.03 | 0.03 | 84 | 1019.2 |
| 20260502064017 | 15 | 225 | 1.6 | 6.4 | 0.00 | 0.00 | 0.00 | 84 | 1019.2 |
| 20260502063017 | 15 | 237 | 3.2 | 6.4 | 0.00 | 0.00 | 0.00 | 83 | 1019.4 |
| 20260502062035 | 15 | 265 | 3.2 | 12.9 | 0.00 | 0.00 | 0.00 | 82 | 1019.6 |
| 20260502061037 | 15 | 245 | 6.4 | 17.7 | 0.00 | 0.00 | 0.00 | 81 | 1019.2 |
| 20260502060015 | 15 | 323 | 0.0 | 8.0 | 0.00 | 0.00 | 0.00 | 81 | 1018.8 |
| 20260502055017 | 15 | 92 | 1.6 | 9.7 | 0.00 | 0.00 | 0.00 | 81 | 1018.7 |
| 20260502054017 | 15 | 124 | 6.4 | 9.7 | 0.00 | 0.00 | 0.00 | 81 | 1018.5 |
| 20260502053017 | 15 | 117 | 1.6 | 14.5 | 0.00 | 0.00 | 0.00 | 81 | 1018.9 |
| 20260502052015 | 15 | 102 | 3.2 | 12.9 | 0.00 | 0.00 | 0.00 | 80 | 1019.1 |
| 20260502051017 | 15 | 125 | 6.4 | 14.5 | 0.00 | 0.00 | 0.00 | 80 | 1019.1 |
| 20260502050017 | 15 | 117 | 3.2 | 11.3 | 0.00 | 0.00 | 0.00 | 80 | 1019.3 |
| 20260502045017 | 15 | 92 | 1.6 | 9.7 | 0.00 | 0.00 | 0.00 | 80 | 1019.3 |
| 20260502044017 | 15 | 124 | 4.8 | 9.7 | 0.00 | 0.00 | 0.00 | 80 | 1019.1 |
| 20260502043017 | 15 | 116 | 3.2 | 8.0 | 0.00 | 0.00 | 0.00 | 80 | 1019.1 |
| 20260502042017 | 15 | 185 | 1.6 | 8.0 | 0.00 | 0.00 | 0.00 | 80 | 1019.1 |
| 20260502041015 | 15 | 125 | 6.4 | 11.3 | 0.00 | 0.00 | 0.00 | 80 | 1019.0 |
| 20260502040017 | 15 | 119 | 4.8 | 9.7 | 0.00 | 0.00 | 0.00 | 80 | 1019.2 |
| 20260502035035 | 15 | 253 | 3.2 | 6.4 | 0.00 | 0.00 | 0.00 | 80 | 1019.3 |
| 20260502034035 | 15 | 105 | 3.2 | 6.4 | 0.00 | 0.00 | 0.00 | 80 | 1019.2 |
| 20260502033015 | 15 | 135 | 1.6 | 8.0 | 0.00 | 0.00 | 0.00 | 79 | 1019.2 |
| 20260502032015 | 15 | 125 | 1.6 | 12.9 | 0.00 | 0.00 | 0.00 | 79 | 1019.1 |
| 20260502031015 | 15 | 141 | 3.2 | 9.7 | 0.00 | 0.00 | 0.00 | 79 | 1019.1 |
| 20260502030015 | 15 | 115 | 1.6 | 9.7 | 0.00 | 0.00 | 0.00 | 79 | 1019.2 |
| 20260502025015 | 15 | 110 | 3.2 | 12.9 | 0.00 | 0.00 | 0.00 | 79 | 1019.3 |
| 20260502024035 | 15 | 258 | 3.2 | 9.7 | 0.00 | 0.00 | 0.00 | 80 | 1019.4 |
| 20260502023015 | 15 | 272 | 1.6 | 6.4 | 0.00 | 0.00 | 0.00 | 80 | 1019.2 |
| 20260502022015 | 15 | 100 | 1.6 | 11.3 | 0.00 | 0.00 | 0.00 | 79 | 1019.2 |
| 20260502021015 | 15 | 124 | 4.8 | 11.3 | 0.00 | 0.00 | 0.00 | 79 | 1019.2 |
| 20260502020015 | 15 | 90 | 1.6 | 6.4 | 0.00 | 0.00 | 0.00 | 79 | 1019.3 |
| 20260502015016 | 15 | 227 | 3.2 | 9.7 | 0.00 | 0.00 | 0.00 | 79 | 1019.5 |
| 20260502014015 | 15 | 140 | 3.2 | 9.7 | 0.00 | 0.00 | 0.00 | 78 | 1019.4 |
| 20260502013035 | 15 | 242 | 3.2 | 14.5 | 0.00 | 0.00 | 0.00 | 78 | 1019.3 |
| 20260502012035 | 16 | 131 | 6.4 | 16.1 | 0.00 | 0.00 | 0.00 | 77 | 1019.4 |
| 20260502011015 | 16 | 137 | 4.8 | 17.7 | 0.00 | 0.00 | 0.00 | 77 | 1019.7 |
| 20260502010035 | 16 | 165 | 3.2 | 6.4 | 0.00 | 0.00 | 0.00 | 77 | 1019.9 |
| 20260502005016 | 16 | 231 | 3.2 | 11.3 | 0.00 | 0.00 | 0.00 | 77 | 1020.0 |
| 20260502004015 | 16 | 227 | 3.2 | 12.9 | 0.00 | 0.00 | 0.00 | 77 | 1019.9 |
| 20260502003015 | 16 | 49 | 1.6 | 14.5 | 0.00 | 0.00 | 0.00 | 76 | 1019.7 |
| 20260502002015 | 16 | 157 | 3.2 | 22.5 | 0.00 | 0.00 | 0.00 | 76 | 1019.8 |
| 20260502001015 | 16 | 122 | 11.3 | 19.3 | 0.00 | 0.00 | 0.00 | 75 | 1019.8 |